Location: Baix
(44.7118°N, 4.7648°E)
Time: 03:32:13
(UTC+00:00)

Cosmos 1461 - Pass Details

Date: 07 August 2020
Orbit: 500 x 665 km, 65.0° (Epoch: 27 September)

Event Time Altitude Azimuth Distance (km) Brightness Sun altitude
Exits shadow 03:23:08 15° 254° (WSW) 1,613 4.6 -11.7°
Maximum altitude 03:26:14 35° 314° (NW) 1,001 4.1 -11.2°
Drops below altitude 10° 03:30:24 10° 21° (NNE) 2,015 6.6 -10.6°
Sets 03:32:56 0° 30° (NNE) 2,951 7.9 -10.3°
